[[{"header":{"parameterUnit":"m.s-1","parameterCategory":1,"la1":30.2991,"la2":30.254,"lo1":-89.0895,"lo2":-89.0444,"dy":0.0017,"dx":0.0017,"nx":28,"ny":28,"refTime":"2025-05-20T21:00:00:Z","depth":0,"parameterNumber":2,"parameterNumberName":"U-component_of_WINDS"},"data":[0,0,0,0,0,0,0,0,0,0,0,0,0,0,0,0,0,0,0,0,0,0,0,0,0,0,0,0,0,0,0,0,0,0,0,0,0,0,0,0,0,0,0,0,0,0,0,0,0,0,0,0,0,0,0,0,0,0,3.7286,3.7286,0,3.7317,3.7318,3.7318,3.7276,3.7275,3.7273,3.7272,3.7303,3.7305,3.7308,0,0,0,0,0,0,0,0,0,0,0,0,0,3.7187,3.7189,3.7286,3.7286,3.7287,3.7317,3.7318,3.7318,3.7277,3.7275,3.7273,3.7271,3.7302,3.7305,3.7308,0,0,0,0,0,0,0,0,0,0,0,0,0,3.7225,3.719,3.7286,3.727,3.7268,3.7317,3.7318,3.7318,3.7277,3.7275,3.7272,3.727,3.7302,3.7305,3.7308,3.7374,0,0,3.7318,3.732,0,0,0,0,0,0,0,0,3.7223,3.7229,3.7271,3.7271,3.727,3.7291,3.7294,3.7337,3.7277,3.7274,3.7272,3.7269,3.7301,3.7304,3.7315,3.7375,3.7377,3.7319,3.7321,3.7322,3.7323,0,0,0,0,0,0,0,3.7221,3.7227,3.7298,3.7272,3.7271,3.726,3.7263,3.7302,3.7299,3.7274,3.7271,3.7275,3.73,3.7312,3.7315,3.7377,3.7319,3.7322,3.7324,3.7325,3.749,3.7492,0,0,0,0,0,0,3.722,3.7226,3.7297,3.7299,3.724,3.7263,3.7267,3.7286,3.7299,3.7299,3.7277,3.7273,3.7307,3.7311,3.7316,3.7391,3.7322,3.7325,3.7327,3.7487,3.749,3.7493,0,0,0,0,0,0,3.7218,3.7227,3.7296,3.7262,3.7269,3.7268,3.729,3.7288,3.73,3.7301,3.73,3.729,3.7306,3.7312,3.7359,3.7392,3.7327,3.733,3.7485,3.7488,3.7491,3.7544,0,0,0,0,0,0,3.7216,3.7227,3.7252,3.7262,3.7271,3.7339,3.7292,3.729,3.7306,3.7301,3.7313,3.7313,3.7304,3.7354,3.7362,3.7395,3.7332,3.7482,3.7486,3.749,3.7539,3.7548,3.7557,0,0,0,0,0,3.7212,3.7266,3.7254,3.7263,3.7304,3.7341,3.7346,3.7335,3.7309,3.7334,3.7334,3.7313,3.7388,3.736,3.7368,3.7403,3.7479,3.7485,3.749,3.7535,3.7547,3.7556,0,0,0,0,0,0,3.7261,3.7267,3.7254,3.7313,3.7327,3.7334,3.7365,3.7349,3.737,3.7365,3.735,3.7353,3.7403,3.7408,3.7377,3.7465,3.7429,3.7436,3.746,3.7471,3.748,3.7476,3.7335,0,0,0,0,0,3.7278,3.7308,3.7313,3.7365,3.7372,3.7368,3.7384,3.7374,3.7388,3.7393,3.7397,3.7411,3.7437,3.7455,3.7479,3.754,3.754,3.7568,3.7577,3.7584,3.759,3.7619,3.763,3.751,3.751,3.751,0,0,3.7315,3.7322,3.7342,3.7374,3.7384,3.7414,3.7373,3.7408,3.743,3.7398,3.7443,3.7446,3.746,3.7514,3.7538,3.752,3.7623,3.7591,3.7597,3.7598,3.7625,3.7637,3.7647,3.7514,3.7513,3.7513,0,0,3.7396,3.7406,3.7448,3.7458,3.7473,3.7469,3.748,3.7489,3.749,3.7535,3.7511,3.7537,3.7583,3.7593,3.7604,3.7687,3.7667,3.7696,3.7741,3.777,3.7779,3.7788,3.7814,3.7824,3.7702,3.7702,3.7702,0,3.7439,3.7485,3.7472,3.7508,3.7521,3.7494,3.7536,3.7546,3.7568,3.7578,3.7557,3.7613,3.7621,3.7675,3.7695,3.7706,3.7715,3.7693,3.7779,3.7787,3.7795,3.782,3.783,3.7705,3.7705,3.7705,3.7704,0,3.7535,3.7567,3.76,3.762,3.7638,3.7677,3.7669,3.7688,3.7676,3.7675,3.7719,3.7727,3.7751,3.7764,3.7754,3.7816,3.7803,3.7782,3.7744,3.7809,3.7833,3.7842,3.771,3.7709,3.7708,3.7707,0,0,3.7648,3.766,3.7672,3.7679,3.7693,3.7717,3.7753,3.7777,3.7792,3.7808,3.7837,3.7876,3.7854,3.7867,3.7858,3.7883,3.7944,3.7858,3.7858,3.7871,3.801,3.8024,3.8036,3.7932,3.7934,3.7935,3.8008,0,3.7726,3.7789,3.7778,3.7839,3.7866,3.784,3.7871,3.7882,3.7881,3.7904,3.7903,3.7929,3.7901,3.7908,3.7933,3.7932,3.7972,3.7927,3.7956,3.7958,3.7951,3.8048,3.8064,3.8132,3.8017,3.8019,3.802,0,3.7826,3.7844,3.7907,3.7914,3.7925,3.7953,3.7972,3.7995,3.8006,3.8003,3.8017,3.8002,3.8036,3.8,3.8046,3.8016,3.8028,3.8029,3.8031,3.8032,3.7991,3.8048,3.8154,3.8163,3.8034,3.8033,3.8032,0,3.7898,3.7938,3.798,3.7988,3.7998,3.8018,3.8022,3.8031,3.8045,3.8062,3.807,3.8092,3.8102,3.8118,3.8109,3.8084,3.8156,3.8119,3.8152,3.8153,3.8167,3.8166,3.8273,3.8179,3.8179,3.8179,3.8179,0,3.7985,3.8024,3.8012,3.8037,3.8079,3.8066,3.8108,3.811,3.8117,3.8142,3.8122,3.8145,3.8132,3.8154,3.8147,3.8185,3.8191,3.8188,3.8185,3.8188,3.8188,3.8194,3.8188,3.8182,3.8181,3.8181,3.818,0,3.8071,3.8065,3.8108,3.8113,3.8115,3.8146,3.8149,3.8172,3.817,3.8201,3.8207,3.8203,3.8227,3.822,3.8247,3.8242,3.8288,3.8281,3.8284,3.8281,3.8314,3.831,3.8426,3.8439,3.834,3.8341,3.8342,0,3.8126,3.8154,3.8162,3.8176,3.8182,3.8207,3.822,3.8208,3.8223,3.8237,3.8258,3.828,3.8297,3.8338,3.8336,3.8356,3.8347,3.8387,3.835,3.8351,3.8344,3.8341,3.8343,3.8393,3.8394,3.8395,3.8396,0,3.8222,3.8217,3.8237,3.8256,3.8272,3.8287,3.8299,3.8313,3.8301,3.8319,3.8343,3.8356,3.8383,3.8405,3.8422,3.8426,3.8408,3.8408,3.8416,3.8418,3.8417,3.8415,3.8301,3.8405,3.8404,3.8403,3.8403,3.8402,3.8292,3.8315,3.8323,3.8345,3.8353,3.8365,3.8386,3.8385,3.8405,3.8425,3.8417,3.8445,3.8453,3.8475,3.8481,3.8502,3.8486,3.8499,3.8502,3.8504,3.8507,3.8416,3.8505,3.8505,3.8505,3.8505,3.8505,0,3.8384,3.8388,3.8409,3.8426,3.8443,3.8425,3.8438,3.8453,3.8477,3.8487,3.8504,3.853,3.8551,3.8551,3.857,3.8586,3.8578,3.8591,3.8589,3.8589,3.8521,3.8511,3.8597,3.8597,3.8597,3.8597,3.8597,3.8597,3.8434,3.8471,3.8467,3.8507,3.851,3.8537,3.8545,3.8555,3.8562,3.8592,3.8609,3.8609,3.8614,3.8633,3.865,3.865,3.8656,3.8672,3.8668,3.8604,3.8594,3.8585,3.8575,3.8674,3.8674,3.8734,3.8734,3.8735]},{"header":{"parameterUnit":"m.s-1","parameterCategory":1,"la1":30.2991,"la2":30.254,"lo1":-89.0895,"lo2":-89.0444,"dy":0.0017,"dx":0.0017,"nx":28,"ny":28,"refTime":"2025-05-20T21:00:00:Z","depth":0,"parameterNumber":3,"parameterNumberName":"V-component_of_WINDS"},"data":[0,0,0,0,0,0,0,0,0,0,0,0,0,0,0,0,0,0,0,0,0,0,0,0,0,0,0,0,0,0,0,0,0,0,0,0,0,0,0,0,0,0,0,0,0,0,0,0,0,0,0,0,0,0,0,0,0,0,7.0678,7.0679,0,7.076,7.0761,7.0762,7.0725,7.0723,7.0721,7.0719,7.0796,7.08,7.0803,0,0,0,0,0,0,0,0,0,0,0,0,0,7.048,7.0484,7.0678,7.0679,7.068,7.076,7.0761,7.0762,7.0725,7.0723,7.072,7.0718,7.0795,7.0799,7.0804,0,0,0,0,0,0,0,0,0,0,0,0,0,7.0564,7.0485,7.0677,7.0671,7.0672,7.076,7.0761,7.0762,7.0726,7.0723,7.072,7.0717,7.0793,7.0799,7.0804,7.0901,0,0,7.0822,7.0825,0,0,0,0,0,0,0,0,7.056,7.0572,7.0671,7.0672,7.0672,7.0729,7.0719,7.0809,7.0727,7.0705,7.0719,7.0715,7.0776,7.0783,7.0805,7.0905,7.0908,7.0823,7.0827,7.0829,7.0831,0,0,0,0,0,0,0,7.0554,7.0568,7.071,7.0673,7.0673,7.0661,7.067,7.0736,7.0756,7.0707,7.0704,7.0715,7.0775,7.0799,7.0806,7.0909,7.0823,7.0828,7.0832,7.0834,7.1091,7.1094,0,0,0,0,0,0,7.0549,7.0563,7.0707,7.0712,7.0608,7.0668,7.0677,7.0714,7.0755,7.0759,7.0717,7.0713,7.079,7.0799,7.0809,7.0924,7.0829,7.0835,7.0838,7.1088,7.1092,7.1095,0,0,0,0,0,0,7.0545,7.0562,7.0704,7.0637,7.0654,7.0674,7.0716,7.0717,7.0741,7.0764,7.0766,7.0739,7.0788,7.08,7.0879,7.0926,7.0837,7.0843,7.1084,7.1089,7.1094,7.1155,0,0,0,0,0,0,7.054,7.0561,7.06,7.0639,7.0658,7.0775,7.0719,7.0721,7.0752,7.0747,7.0784,7.0787,7.0787,7.087,7.0885,7.0932,7.0847,7.108,7.1086,7.1092,7.1149,7.1162,7.1172,0,0,0,0,0,7.0533,7.0613,7.0602,7.062,7.0708,7.0778,7.0789,7.079,7.0756,7.0794,7.0808,7.0786,7.0919,7.0878,7.0894,7.0945,7.1077,7.1084,7.1092,7.1144,7.1159,7.1172,0,0,0,0,0,0,7.0577,7.0618,7.0607,7.0702,7.0737,7.0772,7.082,7.0806,7.0849,7.0842,7.0839,7.0847,7.0928,7.0944,7.0899,7.1039,7.0992,7.1003,7.1026,7.1041,7.1053,7.1046,7.0852,0,0,0,0,0,7.0598,7.0655,7.0686,7.0767,7.0786,7.08,7.0831,7.0828,7.0863,7.0877,7.0897,7.093,7.0979,7.1011,7.1057,7.1151,7.1157,7.1193,7.1205,7.1215,7.1224,7.1273,7.1289,7.112,7.112,7.112,0,0,7.0642,7.0671,7.0707,7.0777,7.0804,7.086,7.0813,7.0874,7.0914,7.0885,7.0961,7.0977,7.1013,7.1099,7.1138,7.1115,7.1272,7.1224,7.1232,7.1235,7.1282,7.1298,7.1312,7.1125,7.1124,7.1123,0,0,7.075,7.0779,7.0849,7.0878,7.092,7.0929,7.0946,7.0983,7.0993,7.1069,7.1048,7.1095,7.118,7.1206,7.123,7.1348,7.1328,7.1363,7.1424,7.1472,7.1485,7.1497,7.1537,7.1552,7.1372,7.1372,7.1373,0,7.0798,7.0885,7.0886,7.095,7.098,7.0959,7.1029,7.1055,7.1109,7.1129,7.1103,7.1209,7.1232,7.1323,7.1352,7.1373,7.139,7.1358,7.1484,7.1495,7.1506,7.1545,7.156,7.1376,7.1376,7.1375,7.1375,0,7.0941,7.1001,7.1052,7.1108,7.1144,7.121,7.1219,7.1255,7.1249,7.126,7.1336,7.1363,7.1414,7.1436,7.143,7.1526,7.151,7.1484,7.1436,7.1526,7.1562,7.1577,7.1382,7.138,7.1379,7.1378,0,0,7.1079,7.1135,7.1154,7.1178,7.1223,7.1268,7.1332,7.1384,7.1414,7.1452,7.1503,7.1576,7.1552,7.1579,7.1576,7.1618,7.1708,7.1587,7.1587,7.1607,7.1814,7.1832,7.185,7.1696,7.1699,7.1701,7.181,0,7.1189,7.1305,7.1308,7.1412,7.1466,7.1446,7.1501,7.1533,7.1545,7.159,7.1602,7.1653,7.1618,7.1634,7.1676,7.1689,7.1749,7.1681,7.1741,7.1743,7.1732,7.1869,7.1889,7.1991,7.1824,7.1827,7.1829,0,7.1334,7.1379,7.1489,7.1526,7.1548,7.1598,7.1646,7.169,7.1725,7.173,7.1762,7.1752,7.1814,7.1765,7.1849,7.1803,7.1827,7.1837,7.1841,7.1846,7.1791,7.1876,7.2024,7.2039,7.1851,7.1849,7.1848,0,7.1422,7.1509,7.1587,7.1608,7.1653,7.1688,7.1708,7.174,7.1771,7.1812,7.1831,7.1878,7.1903,7.1937,7.1939,7.1904,7.2024,7.1975,7.2027,7.2027,7.2053,7.2051,7.2206,7.2071,7.2071,7.207,7.207,0,7.1544,7.1612,7.1627,7.1674,7.1749,7.175,7.1823,7.1839,7.1868,7.1916,7.1901,7.1946,7.1946,7.1991,7.1993,7.2061,7.2073,7.2077,7.2076,7.2078,7.2077,7.2093,7.2085,7.2074,7.2074,7.2073,7.2072,0,7.1654,7.1668,7.175,7.1787,7.1797,7.185,7.188,7.1923,7.1934,7.1994,7.2009,7.2024,7.2076,7.2082,7.2141,7.2142,7.2225,7.2217,7.2214,7.2212,7.2264,7.2258,7.2433,7.2455,7.2307,7.2309,7.231,0,7.1731,7.1784,7.1826,7.1859,7.1881,7.1933,7.1965,7.1968,7.2001,7.2045,7.2083,7.2134,7.2175,7.2258,7.2273,7.2318,7.231,7.2368,7.2317,7.2316,7.2309,7.2306,7.231,7.2378,7.2379,7.2381,7.2382,0,7.1866,7.187,7.1918,7.1969,7.2008,7.2047,7.2084,7.211,7.2117,7.2155,7.2209,7.2241,7.2303,7.2353,7.2398,7.2415,7.2399,7.2398,7.2412,7.2414,7.2409,7.2411,7.224,7.2394,7.2393,7.2392,7.2391,7.2391,7.1961,7.2006,7.2043,7.2097,7.2125,7.216,7.2203,7.2219,7.2265,7.2318,7.2316,7.2375,7.2407,7.2465,7.2486,7.253,7.2511,7.2532,7.2537,7.2541,7.2546,7.2404,7.2538,7.2538,7.2538,7.2538,7.2537,0,7.2093,7.2117,7.2166,7.2219,7.2261,7.2246,7.2285,7.232,7.2373,7.2405,7.2447,7.2508,7.2556,7.2575,7.2622,7.2653,7.2647,7.2665,7.2662,7.2666,7.2562,7.2544,7.267,7.267,7.267,7.267,7.2669,7.2669,7.2167,7.2243,7.2251,7.2339,7.236,7.2421,7.2444,7.2475,7.2501,7.2571,7.2612,7.2625,7.2651,7.2699,7.2742,7.2746,7.2763,7.2784,7.2785,7.2687,7.2674,7.2661,7.2644,7.2788,7.2789,7.2885,7.2886,7.2887]}]]